Location: Lake Arresoe
(56.0000°N, 12.5000°E)
Time: 07:18:16
(UTC+02:00)

Cosmos 1674 - Pass Details

Date: 26 July 2021
Orbit: 491 x 516 km, 82.5° (Epoch: 19 September)

Event Time Altitude Azimuth Distance (km) Brightness Sun altitude
Rises 04:03:24 0° 348° (NNW) 2,653 6.9 -6.8°
Reaches altitude 10° 04:05:32 10° 349° (N) 1,762 6.0 -6.6°
Maximum altitude 04:09:25 82° 78° (ENE) 532 2.8 -6.3°
Drops below altitude 10° 04:13:16 10° 166° (SSE) 1,747 5.1 -5.9°
Sets 04:15:23 0° 167° (SSE) 2,628 5.9 -5.7°
